Location: London
(51.5074°N, 0.1278°W)
Time: 04:16:31
(UTC+01:00)

ISS - Pass Details

Date: 07 April 2018
Orbit: 402 x 408 km, 51.6° (Epoch: 20 September)

Event Time Altitude Azimuth Distance (km) Brightness Sun altitude
Rises 20:07:22 0° 283° (WNW) 2,375 3.0 -4.4°
Reaches altitude 10° 20:09:30 10° 279° (W) 1,509 0.9 -4.7°
Maximum altitude 20:12:49 55° 201° (SSW) 513 -3.3 -5.2°
Drops below altitude 10° 20:16:08 10° 123° (ESE) 1,504 -1.6 -5.7°
Enters shadow 20:16:42 - 121° (ESE) 1,731 -1.3 -5.8°
